Weather History for Danville, VA

Change the Weather History Date:

Tuesday, November 29, 2011

  Actual Average Record
Temperature  
Mean Temperature 51 °F 44 °F  
Max Temperature 65 °F 55 °F 78 °F (1985)
Min Temperature 37 °F 34 °F 15 °F (1955)
Degree Days  
Heating Degree Days 14 21  
Month to date heating degree days 408 455  
Since 1 July heating degree days 705 688  
Cooling Degree Days 0 0  
Month to date cooling degree days 1 0  
Year to date cooling degree days 1564 1436  
Moisture  
Dew Point 45 °F    
Average Humidity 76    
Maximum Humidity 100    
Minimum Humidity 52    
Precipitation  
Precipitation 1.31 in 0.11 in 1.65 in (2005)
Month to date precipitation 4.98 3.25  
Year to date precipitation 36.82 41.03  
Snow  
Snow 0.00 in - - ()
Month to date snowfall 0.0  
Since 1 July snowfall 0.0  
Since 1 September snowfall 0.0  
Snow Depth 0.00 in    
Sea Level Pressure  
Sea Level Pressure 29.78 in    
Wind  
Wind Speed 10 mph (SW)    
Max Wind Speed 26 mph    
Max Gust Speed 33 mph    
Visibility 7 miles    
Events Rain    
T = Trace of Precipitation, MM = Missing Value Source: NWS Daily Summary

Daily Weather History Graph

Daily Weather History Graph

Search for Another Location

Airport:

Trip Planner

Search our weather history database for the weather conditions in past years. The results will help you decide how hot, cold, wet, or windy it might be!

Date:

Astronomy

Nov. 29, 2011 Rise Set
Actual Time 7:08 AM EST 5:02 PM EST
Civil Twilight 6:40 AM EST 5:30 PM EST
Nautical Twilight 6:08 AM EST 6:02 PM EST
Astronomical Twilight 5:37 AM EST 6:33 PM EST
Moon 10:56 AM EST (11/29) 9:50 PM EST (11/29)
Length of Visible Light 10h 50m
Length of Day
9h 53m
Waxing Crescent, 24% of the Moon is Illuminated
Nov 29
Waxing Crescent
Dec 2
First Quarter
Dec 10
Full
Dec 17
Last Quarter
Dec 24
New

Hourly Weather History & Observations

Time (EST) Temp. Windchill Dew Point Humidity Pressure Visibility Wind Dir Wind Speed Gust Speed Precip Events Conditions
12:02 AM 64.4 °F - 59.0 °F 83% 29.80 in 10.0 mi ESE 9.2 mph - N/A   Overcast
12:53 AM 62.1 °F - 60.1 °F 93% 29.73 in 7.0 mi ESE 9.2 mph - 0.06 in Rain Light Rain
1:40 AM 62.6 °F - 60.8 °F 94% 29.74 in 5.0 mi ESE 10.4 mph 18.4 mph 0.07 in Rain Light Rain
1:53 AM 62.6 °F - 60.8 °F 94% 29.74 in 5.0 mi SE 9.2 mph 16.1 mph N/A Rain Rain
2:14 AM 62.6 °F - 60.8 °F 94% 29.71 in 6.0 mi ESE 6.9 mph - 0.05 in Rain Light Rain
2:29 AM 57.2 °F - 55.4 °F 94% 29.76 in 3.0 mi SW 25.3 mph 33.4 mph 0.12 in Rain Rain
2:43 AM 55.4 °F - 53.6 °F 94% 29.77 in 3.0 mi WSW 16.1 mph 26.5 mph 0.21 in Rain Rain
2:53 AM 54.0 °F - 53.1 °F 97% 29.75 in 4.0 mi WSW 17.3 mph 24.2 mph 0.27 in Rain Heavy Rain
3:07 AM 53.6 °F - 51.8 °F 94% 29.76 in 4.0 mi WSW 12.7 mph - 0.08 in Rain Rain
3:30 AM 51.8 °F - 51.8 °F 100% 29.78 in 3.0 mi WSW 10.4 mph - 0.22 in Rain Heavy Rain
3:40 AM 51.8 °F - 51.8 °F 100% 29.78 in 3.0 mi WSW 10.4 mph - 0.27 in Rain Rain
3:53 AM 51.1 °F - 50.0 °F 96% 29.77 in 2.5 mi SW 9.2 mph - 0.36 in Rain Heavy Rain
4:00 AM 51.8 °F - 50.0 °F 94% 29.78 in 2.5 mi West 9.2 mph - 0.06 in Rain Heavy Rain
4:12 AM 51.8 °F - 48.2 °F 88% 29.78 in 4.0 mi WSW 9.2 mph - 0.11 in Rain Light Rain
4:22 AM 51.8 °F - 50.0 °F 94% 29.78 in 2.5 mi WSW 6.9 mph - 0.17 in Rain Rain
4:24 AM 51.8 °F - 50.0 °F 94% 29.79 in 3.0 mi SW 6.9 mph - 0.17 in Rain Rain
4:29 AM 51.8 °F - 50.0 °F 94% 29.79 in 2.5 mi SW 3.5 mph - 0.21 in Rain Heavy Rain
4:33 AM 50.0 °F - 50.0 °F 100% 29.78 in 2.5 mi SW 4.6 mph - 0.23 in Rain Rain
4:42 AM 51.8 °F - 50.0 °F 94% 29.79 in 2.5 mi Calm Calm - 0.27 in Rain Rain
4:53 AM 51.1 °F - 50.0 °F 96% 29.77 in 4.0 mi Variable 5.8 mph - 0.31 in Rain Rain
5:01 AM 50.0 °F - 48.2 °F 94% 29.78 in 4.0 mi SSW 5.8 mph - 0.02 in Rain Rain
5:53 AM 48.0 °F - 46.9 °F 96% 29.75 in 5.0 mi South 4.6 mph - 0.10 in Rain Rain
6:53 AM 46.9 °F - 46.0 °F 97% 29.78 in 10.0 mi SSW 9.2 mph 17.3 mph 0.09 in Rain Light Rain
7:06 AM 46.4 °F 42.9 °F 46.4 °F 100% 29.80 in 10.0 mi SSW 6.9 mph - 0.01 in Rain Light Rain
7:43 AM 46.4 °F 42.9 °F 46.4 °F 100% 29.82 in 10.0 mi SW 6.9 mph - 0.01 in Rain Light Rain
7:53 AM 46.9 °F - 46.0 °F 97% 29.81 in 10.0 mi SW 11.5 mph - 0.01 in   Overcast
8:53 AM 46.9 °F - 44.1 °F 90% 29.81 in 10.0 mi SW 11.5 mph 19.6 mph N/A   Overcast
9:53 AM 48.9 °F - 41.0 °F 74% 29.82 in 10.0 mi SSW 6.9 mph - N/A   Mostly Cloudy
10:05 AM 50.0 °F - 41.0 °F 71% 29.85 in 10.0 mi SSW 11.5 mph 17.3 mph N/A   Mostly Cloudy
10:24 AM 51.8 °F - 39.2 °F 62% 29.84 in 10.0 mi SSW 8.1 mph 16.1 mph N/A   Mostly Cloudy
10:53 AM 52.0 °F - 42.1 °F 69% 29.81 in 10.0 mi Variable 6.9 mph - N/A   Unknown
11:38 AM 48.2 °F - 37.4 °F 66% 29.81 in 10.0 mi SW 10.4 mph - N/A   Mostly Cloudy
11:53 AM 48.9 °F - 37.9 °F 66% 29.79 in 10.0 mi SW 10.4 mph - N/A   Partly Cloudy
12:53 PM 52.0 °F - 35.1 °F 53% 29.76 in 10.0 mi SW 15.0 mph 20.7 mph N/A   Mostly Cloudy
1:53 PM 52.0 °F - 36.0 °F 54% 29.73 in 10.0 mi Variable 5.8 mph - N/A   Mostly Cloudy
2:53 PM 50.0 °F - 33.1 °F 52% 29.74 in 10.0 mi SW 11.5 mph 23.0 mph N/A   Mostly Cloudy
3:53 PM 48.0 °F - 33.1 °F 56% 29.74 in 10.0 mi SSW 6.9 mph - N/A   Mostly Cloudy
4:53 PM 46.9 °F - 33.1 °F 59% 29.75 in 10.0 mi SW 12.7 mph - N/A   Overcast
5:53 PM 44.1 °F 37.4 °F 37.0 °F 76% 29.77 in 10.0 mi SW 13.8 mph - 0.01 in Rain Light Rain
6:53 PM 43.0 °F 36.8 °F 37.0 °F 80% 29.79 in 10.0 mi SW 11.5 mph - 0.00 in Rain Light Rain
7:15 PM 42.8 °F 37.0 °F 35.6 °F 76% 29.80 in 10.0 mi SW 10.4 mph - 0.00 in   Mostly Cloudy
7:53 PM 41.0 °F 33.9 °F 36.0 °F 82% 29.80 in 10.0 mi WSW 12.7 mph - 0.00 in   Mostly Cloudy
8:24 PM 42.8 °F 35.4 °F 35.6 °F 76% 29.82 in 10.0 mi WSW 15.0 mph 21.9 mph N/A   Overcast
8:53 PM 42.1 °F 34.5 °F 33.1 °F 70% 29.82 in 10.0 mi WSW 15.0 mph - N/A   Overcast
9:53 PM 39.9 °F 35.8 °F 33.1 °F 77% 29.81 in 10.0 mi SSW 5.8 mph - N/A   Partly Cloudy
10:12 PM 39.2 °F 33.6 °F 33.8 °F 81% 29.82 in 10.0 mi SW 8.1 mph - N/A   Mostly Cloudy
10:41 PM 39.2 °F 35.0 °F 33.8 °F 81% 29.81 in 10.0 mi SSW 5.8 mph - N/A   Scattered Clouds
10:53 PM 37.9 °F 33.5 °F 34.0 °F 86% 29.79 in 10.0 mi SSW 5.8 mph - N/A   Clear
11:53 PM 37.9 °F 32.1 °F 34.0 °F 86% 29.80 in 10.0 mi SW 8.1 mph - N/A   Scattered Clouds